Time,TemperatureF,DewpointF,PressureIn,WindDirection,WindDirectionDegrees,WindSpeedMPH,WindSpeedGustMPH,Humidity,HourlyPrecipIn,Conditions,Clouds,dailyrainin,SoftwareType,DateUTC
2013-08-19 00:00:00,68.6,62.9,30.01,ESE,117,0.0,0.0,82,0.00,,---,0.00,VWS V14.00,2013-08-19 05:00:00,
2013-08-19 00:01:00,68.6,62.9,30.01,ESE,117,0.0,0.0,82,0.00,,---,0.01,VWS V14.00,2013-08-19 05:01:00,
2013-08-19 00:05:00,68.5,62.8,30.01,ESE,117,0.0,0.0,82,0.00,,---,0.00,VWS V14.00,2013-08-19 05:05:00,
2013-08-19 00:06:00,68.5,62.8,30.01,ESE,117,0.0,0.0,82,0.00,,---,0.00,VWS V14.00,2013-08-19 05:06:00,
2013-08-19 00:10:00,68.4,63.0,30.01,ESE,117,0.0,0.0,83,0.00,,---,0.00,VWS V14.00,2013-08-19 05:10:00,
2013-08-19 00:11:00,68.4,63.0,30.01,ESE,117,0.0,0.0,83,0.00,,---,0.00,VWS V14.00,2013-08-19 05:11:00,
2013-08-19 00:15:00,68.3,62.9,30.02,ESE,117,0.0,0.0,83,0.00,,---,0.00,VWS V14.00,2013-08-19 05:15:00,
2013-08-19 00:16:00,68.3,62.9,30.02,ESE,117,0.0,0.0,83,0.00,,---,0.00,VWS V14.00,2013-08-19 05:16:00,
2013-08-19 00:20:00,68.2,62.8,30.02,ESE,117,0.0,0.0,83,0.00,,---,0.00,VWS V14.00,2013-08-19 05:20:00,
2013-08-19 00:21:00,68.2,62.8,30.02,ESE,117,0.0,0.0,83,0.00,,---,0.00,VWS V14.00,2013-08-19 05:21:00,
2013-08-19 00:25:00,68.1,63.1,30.02,ESE,117,0.0,0.0,84,0.00,,---,0.00,VWS V14.00,2013-08-19 05:25:00,
2013-08-19 00:26:00,68.1,63.1,30.02,ESE,117,0.0,0.0,84,0.00,,---,0.00,VWS V14.00,2013-08-19 05:26:00,
2013-08-19 00:30:00,68.0,63.3,30.02,ESE,117,0.0,0.0,85,0.00,,---,0.00,VWS V14.00,2013-08-19 05:30:00,
2013-08-19 00:31:00,68.0,63.3,30.02,ESE,117,0.0,0.0,85,0.00,,---,0.00,VWS V14.00,2013-08-19 05:31:00,
2013-08-19 00:35:00,67.9,63.6,30.02,ESE,117,0.0,0.0,86,0.00,,---,0.00,VWS V14.00,2013-08-19 05:35:00,
2013-08-19 00:36:00,68.0,63.7,30.02,ESE,117,0.0,0.0,86,0.00,,---,0.00,VWS V14.00,2013-08-19 05:36:00,
2013-08-19 00:40:00,67.9,63.9,30.02,ESE,117,0.0,0.0,87,0.00,,---,0.00,VWS V14.00,2013-08-19 05:40:00,
2013-08-19 00:41:00,67.9,63.9,30.02,ESE,117,0.0,0.0,87,0.00,,---,0.00,VWS V14.00,2013-08-19 05:41:00,
2013-08-19 00:45:00,67.7,63.7,30.02,ESE,117,0.0,0.0,87,0.00,,---,0.00,VWS V14.00,2013-08-19 05:45:00,
2013-08-19 00:46:00,67.7,63.7,30.02,ESE,117,0.0,0.0,87,0.00,,---,0.00,VWS V14.00,2013-08-19 05:46:00,
2013-08-19 00:50:00,67.5,63.8,30.02,ESE,117,0.0,0.0,88,0.00,,---,0.00,VWS V14.00,2013-08-19 05:50:00,
2013-08-19 00:51:00,67.6,63.6,30.02,ESE,117,0.0,0.0,87,0.00,,---,0.00,VWS V14.00,2013-08-19 05:51:00,
2013-08-19 00:55:00,67.4,63.7,30.02,ESE,117,0.0,0.0,88,0.00,,---,0.00,VWS V14.00,2013-08-19 05:55:00,
2013-08-19 00:56:00,67.5,63.8,30.02,ESE,117,0.0,0.0,88,0.00,,---,0.00,VWS V14.00,2013-08-19 05:56:00,
2013-08-19 01:00:00,67.3,63.6,30.02,ESE,117,0.0,0.0,88,0.00,,---,0.00,VWS V14.00,2013-08-19 06:00:00,
2013-08-19 01:01:00,67.3,63.6,30.02,ESE,117,0.0,0.0,88,0.00,,---,0.00,VWS V14.00,2013-08-19 06:01:00,
2013-08-19 01:05:00,67.1,63.4,30.02,ESE,117,0.0,0.0,88,0.00,,---,0.00,VWS V14.00,2013-08-19 06:05:00,
2013-08-19 01:06:00,67.1,63.4,30.02,ESE,117,0.0,0.0,88,0.00,,---,0.00,VWS V14.00,2013-08-19 06:06:00,
2013-08-19 01:10:00,67.0,63.3,30.02,ESE,117,0.0,0.0,88,0.00,,---,0.00,VWS V14.00,2013-08-19 06:10:00,
2013-08-19 01:11:00,67.0,63.3,30.02,ESE,117,0.0,0.0,88,0.00,,---,0.00,VWS V14.00,2013-08-19 06:11:00,
2013-08-19 01:15:00,66.9,63.2,30.02,ESE,117,0.0,0.0,88,0.00,,---,0.00,VWS V14.00,2013-08-19 06:15:00,
2013-08-19 01:16:00,66.9,63.2,30.02,ESE,117,0.0,0.0,88,0.00,,---,0.00,VWS V14.00,2013-08-19 06:16:00,
2013-08-19 01:20:00,66.8,63.1,30.02,ESE,117,0.0,0.0,88,0.00,,---,0.00,VWS V14.00,2013-08-19 06:20:00,
2013-08-19 01:21:00,66.8,63.1,30.02,ESE,117,0.0,0.0,88,0.00,,---,0.00,VWS V14.00,2013-08-19 06:21:00,
2013-08-19 01:25:00,66.7,63.4,30.02,ESE,117,0.0,0.0,89,0.00,,---,0.00,VWS V14.00,2013-08-19 06:25:00,
2013-08-19 01:26:00,66.7,63.4,30.02,ESE,117,0.0,0.0,89,0.00,,---,0.00,VWS V14.00,2013-08-19 06:26:00,
2013-08-19 01:30:00,66.6,62.9,30.02,ESE,117,0.0,0.0,88,0.00,,---,0.00,VWS V14.00,2013-08-19 06:30:00,
2013-08-19 01:31:00,66.6,63.3,30.02,ESE,117,0.0,0.0,89,0.00,,---,0.00,VWS V14.00,2013-08-19 06:31:00,
2013-08-19 01:35:00,66.5,63.2,30.02,ESE,117,0.0,0.0,89,0.00,,---,0.00,VWS V14.00,2013-08-19 06:35:00,
2013-08-19 01:36:00,66.5,63.2,30.02,ESE,117,0.0,0.0,89,0.00,,---,0.00,VWS V14.00,2013-08-19 06:36:00,
2013-08-19 01:40:00,66.4,63.1,30.02,ESE,117,0.0,0.0,89,0.00,,---,0.00,VWS V14.00,2013-08-19 06:40:00,
2013-08-19 01:41:00,66.5,63.2,30.02,ESE,117,0.0,0.0,89,0.00,,---,0.00,VWS V14.00,2013-08-19 06:41:00,
2013-08-19 01:45:00,66.3,63.0,30.02,ESE,117,0.0,0.0,89,0.00,,---,0.00,VWS V14.00,2013-08-19 06:45:00,
2013-08-19 01:46:00,66.4,63.1,30.02,ESE,117,0.0,0.0,89,0.00,,---,0.00,VWS V14.00,2013-08-19 06:46:00,
2013-08-19 01:50:00,66.3,63.3,30.02,ESE,117,0.0,0.0,90,0.00,,---,0.00,VWS V14.00,2013-08-19 06:50:00,
2013-08-19 01:51:00,66.3,63.3,30.02,ESE,117,0.0,0.0,90,0.00,,---,0.00,VWS V14.00,2013-08-19 06:51:00,
2013-08-19 01:55:00,66.3,63.3,30.01,ESE,117,0.0,0.0,90,0.00,,---,0.00,VWS V14.00,2013-08-19 06:55:00,
2013-08-19 01:56:00,66.3,63.3,30.01,ESE,117,0.0,0.0,90,0.00,,---,0.00,VWS V14.00,2013-08-19 06:56:00,
2013-08-19 02:00:00,66.1,63.1,30.01,ESE,117,0.0,0.0,90,0.00,,---,0.00,VWS V14.00,2013-08-19 07:00:00,
2013-08-19 02:01:00,66.2,63.2,30.01,ESE,117,0.0,0.0,90,0.00,,---,0.00,VWS V14.00,2013-08-19 07:01:00,
2013-08-19 02:05:00,66.0,63.0,30.01,ESE,117,0.0,0.0,90,0.00,,---,0.00,VWS V14.00,2013-08-19 07:05:00,
2013-08-19 02:06:00,66.0,63.0,30.01,ESE,117,0.0,0.0,90,0.00,,---,0.00,VWS V14.00,2013-08-19 07:06:00,
2013-08-19 02:10:00,66.0,63.0,30.01,ESE,117,0.0,0.0,90,0.00,,---,0.00,VWS V14.00,2013-08-19 07:10:00,
2013-08-19 02:11:00,66.0,63.0,30.01,ESE,117,0.0,0.0,90,0.00,,---,0.00,VWS V14.00,2013-08-19 07:11:00,
2013-08-19 02:15:00,65.9,62.9,30.01,ESE,117,0.0,0.0,90,0.00,,---,0.00,VWS V14.00,2013-08-19 07:15:00,
2013-08-19 02:16:00,65.9,62.9,30.01,ESE,117,0.0,0.0,90,0.00,,---,0.00,VWS V14.00,2013-08-19 07:16:00,
2013-08-19 02:20:00,65.8,63.1,30.01,ESE,117,0.0,0.0,91,0.00,,---,0.00,VWS V14.00,2013-08-19 07:20:00,
2013-08-19 02:21:00,65.8,62.8,30.01,ESE,117,0.0,0.0,90,0.00,,---,0.00,VWS V14.00,2013-08-19 07:21:00,
2013-08-19 02:25:00,65.9,63.2,30.01,ESE,117,0.0,0.0,91,0.00,,---,0.00,VWS V14.00,2013-08-19 07:25:00,
2013-08-19 02:26:00,65.9,63.2,30.01,ESE,117,0.0,0.0,91,0.00,,---,0.00,VWS V14.00,2013-08-19 07:26:00,
2013-08-19 02:30:00,65.9,63.2,30.01,ESE,117,0.0,0.0,91,0.00,,---,0.00,VWS V14.00,2013-08-19 07:30:00,
2013-08-19 02:31:00,65.9,63.2,30.01,ESE,117,0.0,0.0,91,0.00,,---,0.00,VWS V14.00,2013-08-19 07:31:00,
2013-08-19 02:35:00,65.9,63.2,30.01,ESE,117,0.0,0.0,91,0.00,,---,0.00,VWS V14.00,2013-08-19 07:35:00,
2013-08-19 02:36:00,65.9,63.2,30.01,ESE,117,0.0,0.0,91,0.00,,---,0.00,VWS V14.00,2013-08-19 07:36:00,
2013-08-19 02:40:00,65.9,63.2,30.01,ESE,117,0.0,0.0,91,0.00,,---,0.00,VWS V14.00,2013-08-19 07:40:00,
2013-08-19 02:41:00,65.9,63.2,30.01,ESE,117,0.0,0.0,91,0.00,,---,0.00,VWS V14.00,2013-08-19 07:41:00,
2013-08-19 02:45:00,65.9,63.2,30.01,ESE,117,0.0,0.0,91,0.00,,---,0.00,VWS V14.00,2013-08-19 07:45:00,
2013-08-19 02:46:00,65.9,63.2,30.01,ESE,117,0.0,0.0,91,0.00,,---,0.00,VWS V14.00,2013-08-19 07:46:00,
2013-08-19 02:50:00,65.8,63.1,30.01,ESE,117,0.0,0.0,91,0.00,,---,0.00,VWS V14.00,2013-08-19 07:50:00,
2013-08-19 02:51:00,65.8,63.1,30.00,ESE,117,0.0,0.0,91,0.00,,---,0.00,VWS V14.00,2013-08-19 07:51:00,
2013-08-19 02:55:00,65.8,63.1,30.00,ESE,117,0.0,0.0,91,0.00,,---,0.00,VWS V14.00,2013-08-19 07:55:00,
2013-08-19 02:56:00,65.8,63.1,30.01,ESE,117,0.0,0.0,91,0.00,,---,0.00,VWS V14.00,2013-08-19 07:56:00,
2013-08-19 03:00:00,65.7,63.0,30.00,ESE,117,0.0,0.0,91,0.00,,---,0.00,VWS V14.00,2013-08-19 08:00:00,
2013-08-19 03:01:00,65.7,63.0,30.00,ESE,117,0.0,0.0,91,0.00,,---,0.00,VWS V14.00,2013-08-19 08:01:00,
2013-08-19 03:05:00,65.7,63.0,30.00,ESE,117,0.0,0.0,91,0.00,,---,0.00,VWS V14.00,2013-08-19 08:05:00,
2013-08-19 03:06:00,65.7,63.0,30.00,ESE,117,0.0,0.0,91,0.00,,---,0.00,VWS V14.00,2013-08-19 08:06:00,
2013-08-19 03:10:00,65.6,62.9,30.00,ESE,117,0.0,0.0,91,0.00,,---,0.00,VWS V14.00,2013-08-19 08:10:00,
2013-08-19 03:11:00,65.6,62.9,30.00,ESE,117,0.0,0.0,91,0.00,,---,0.00,VWS V14.00,2013-08-19 08:11:00,
2013-08-19 03:15:00,65.6,62.9,30.00,ESE,117,0.0,0.0,91,0.00,,---,0.00,VWS V14.00,2013-08-19 08:15:00,
2013-08-19 03:16:00,65.6,62.9,30.00,ESE,117,0.0,0.0,91,0.00,,---,0.00,VWS V14.00,2013-08-19 08:16:00,
2013-08-19 03:20:00,65.5,62.8,30.00,ESE,117,0.0,0.0,91,0.00,,---,0.00,VWS V14.00,2013-08-19 08:20:00,
2013-08-19 03:21:00,65.5,62.8,30.00,ESE,117,0.0,0.0,91,0.00,,---,0.00,VWS V14.00,2013-08-19 08:21:00,
2013-08-19 03:25:00,65.4,62.7,30.00,ESE,117,0.0,0.0,91,0.00,,---,0.00,VWS V14.00,2013-08-19 08:25:00,
2013-08-19 03:26:00,65.4,62.7,30.00,ESE,117,0.0,0.0,91,0.00,,---,0.00,VWS V14.00,2013-08-19 08:26:00,
2013-08-19 03:30:00,65.4,62.7,30.00,ESE,117,0.0,0.0,91,0.00,,---,0.00,VWS V14.00,2013-08-19 08:30:00,
2013-08-19 03:31:00,65.4,62.7,30.00,ESE,117,0.0,0.0,91,0.00,,---,0.00,VWS V14.00,2013-08-19 08:31:00,
2013-08-19 03:35:00,65.3,62.6,30.00,ESE,117,0.0,0.0,91,0.00,,---,0.00,VWS V14.00,2013-08-19 08:35:00,
2013-08-19 03:36:00,65.3,62.6,30.00,ESE,117,0.0,0.0,91,0.00,,---,0.00,VWS V14.00,2013-08-19 08:36:00,
2013-08-19 03:40:00,65.2,62.8,30.00,ESE,117,0.0,0.0,92,0.00,,---,0.00,VWS V14.00,2013-08-19 08:40:00,
2013-08-19 03:41:00,65.3,62.6,30.00,ESE,117,0.0,0.0,91,0.00,,---,0.00,VWS V14.00,2013-08-19 08:41:00,
2013-08-19 03:45:00,65.1,62.7,30.00,ESE,117,0.0,0.0,92,0.00,,---,0.00,VWS V14.00,2013-08-19 08:45:00,
2013-08-19 03:46:00,65.1,62.7,30.00,ESE,117,0.0,0.0,92,0.00,,---,0.00,VWS V14.00,2013-08-19 08:46:00,
2013-08-19 03:50:00,64.9,62.5,30.00,ESE,117,0.0,0.0,92,0.00,,---,0.00,VWS V14.00,2013-08-19 08:50:00,
2013-08-19 03:51:00,65.0,62.3,30.00,ESE,117,0.0,0.0,91,0.00,,---,0.00,VWS V14.00,2013-08-19 08:51:00,
2013-08-19 03:55:00,64.9,62.5,30.00,ESE,117,0.0,0.0,92,0.00,,---,0.00,VWS V14.00,2013-08-19 08:55:00,
2013-08-19 03:56:00,64.9,62.5,30.00,ESE,117,0.0,0.0,92,0.00,,---,0.00,VWS V14.00,2013-08-19 08:56:00,
2013-08-19 04:00:00,64.9,62.5,30.00,ESE,117,0.0,0.0,92,0.00,,---,0.00,VWS V14.00,2013-08-19 09:00:00,
2013-08-19 04:01:00,64.9,62.5,30.00,ESE,117,0.0,0.0,92,0.00,,---,0.00,VWS V14.00,2013-08-19 09:01:00,
2013-08-19 04:05:00,64.7,62.3,29.99,ESE,117,0.0,0.0,92,0.00,,---,0.00,VWS V14.00,2013-08-19 09:05:00,
2013-08-19 04:06:00,64.8,62.4,29.99,ESE,117,0.0,0.0,92,0.00,,---,0.00,VWS V14.00,2013-08-19 09:06:00,
2013-08-19 04:10:00,64.7,62.3,29.99,ESE,117,0.0,0.0,92,0.00,,---,0.00,VWS V14.00,2013-08-19 09:10:00,
2013-08-19 04:11:00,64.7,62.3,29.99,ESE,117,0.0,0.0,92,0.00,,---,0.00,VWS V14.00,2013-08-19 09:11:00,
2013-08-19 04:15:00,64.6,62.2,29.99,ESE,117,0.0,0.0,92,0.00,,---,0.00,VWS V14.00,2013-08-19 09:15:00,
2013-08-19 04:16:00,64.7,62.3,29.99,ESE,117,0.0,0.0,92,0.00,,---,0.00,VWS V14.00,2013-08-19 09:16:00,
2013-08-19 04:20:00,64.7,62.3,29.99,ESE,117,0.0,0.0,92,0.00,,---,0.00,VWS V14.00,2013-08-19 09:20:00,
2013-08-19 04:21:00,64.7,62.3,29.99,ESE,117,0.0,0.0,92,0.00,,---,0.00,VWS V14.00,2013-08-19 09:21:00,
2013-08-19 04:25:00,64.8,62.4,29.99,ESE,117,0.0,0.0,92,0.00,,---,0.00,VWS V14.00,2013-08-19 09:25:00,
2013-08-19 04:26:00,64.8,62.4,29.99,ESE,117,0.0,0.0,92,0.00,,---,0.00,VWS V14.00,2013-08-19 09:26:00,
2013-08-19 04:30:00,64.8,62.4,29.99,ESE,117,0.0,0.0,92,0.00,,---,0.00,VWS V14.00,2013-08-19 09:30:00,
2013-08-19 04:31:00,64.8,62.4,29.99,ESE,117,0.0,0.0,92,0.00,,---,0.00,VWS V14.00,2013-08-19 09:31:00,
2013-08-19 04:35:00,64.8,62.4,29.99,ESE,117,0.0,0.0,92,0.00,,---,0.00,VWS V14.00,2013-08-19 09:35:00,
2013-08-19 04:36:00,64.8,62.4,29.99,ESE,117,0.0,0.0,92,0.00,,---,0.00,VWS V14.00,2013-08-19 09:36:00,
2013-08-19 04:40:00,64.9,62.5,29.99,ESE,117,0.0,0.0,92,0.00,,---,0.00,VWS V14.00,2013-08-19 09:40:00,
2013-08-19 04:41:00,64.8,62.4,29.99,ESE,117,0.0,0.0,92,0.00,,---,0.00,VWS V14.00,2013-08-19 09:41:00,
2013-08-19 04:45:00,64.9,62.5,29.99,ESE,117,0.0,0.0,92,0.00,,---,0.00,VWS V14.00,2013-08-19 09:45:00,
2013-08-19 04:46:00,64.9,62.5,29.99,ESE,117,0.0,0.0,92,0.00,,---,0.00,VWS V14.00,2013-08-19 09:46:00,
2013-08-19 04:50:00,64.8,62.4,29.99,ESE,117,0.0,0.0,92,0.00,,---,0.00,VWS V14.00,2013-08-19 09:50:00,
2013-08-19 04:51:00,64.9,62.5,29.99,ESE,117,0.0,0.0,92,0.00,,---,0.00,VWS V14.00,2013-08-19 09:51:00,
2013-08-19 04:55:00,64.7,62.3,29.99,ESE,117,0.0,0.0,92,0.00,,---,0.00,VWS V14.00,2013-08-19 09:55:00,
2013-08-19 04:56:00,64.8,62.4,29.99,ESE,117,0.0,0.0,92,0.00,,---,0.00,VWS V14.00,2013-08-19 09:56:00,
2013-08-19 05:00:00,64.7,62.3,30.00,ESE,117,0.0,0.0,92,0.00,,---,0.00,VWS V14.00,2013-08-19 10:00:00,
2013-08-19 05:01:00,64.7,62.3,30.00,ESE,117,0.0,0.0,92,0.00,,---,0.00,VWS V14.00,2013-08-19 10:01:00,
2013-08-19 05:05:00,64.8,62.4,29.99,ESE,117,0.0,0.0,92,0.00,,---,0.00,VWS V14.00,2013-08-19 10:05:00,
2013-08-19 05:06:00,64.7,62.3,29.99,ESE,117,0.0,0.0,92,0.00,,---,0.00,VWS V14.00,2013-08-19 10:06:00,
2013-08-19 05:10:00,64.9,62.5,29.99,ESE,117,0.0,0.0,92,0.00,,---,0.00,VWS V14.00,2013-08-19 10:10:00,
2013-08-19 05:11:00,64.9,62.5,29.99,ESE,117,0.0,0.0,92,0.00,,---,0.00,VWS V14.00,2013-08-19 10:11:00,
2013-08-19 05:15:00,65.1,62.7,29.99,ESE,117,0.0,0.0,92,0.00,,---,0.00,VWS V14.00,2013-08-19 10:15:00,
2013-08-19 05:20:00,65.2,63.1,29.99,ESE,117,1.0,2.0,93,0.00,,---,0.00,VWS V14.00,2013-08-19 10:20:00,
2013-08-19 05:25:00,65.4,63.3,29.99,ESE,117,2.0,3.0,93,0.00,,---,0.00,VWS V14.00,2013-08-19 10:25:00,
2013-08-19 05:30:00,65.6,63.2,29.99,ESE,117,0.0,0.0,92,0.00,,---,0.00,VWS V14.00,2013-08-19 10:30:00,
2013-08-19 05:35:00,65.7,63.3,29.99,ESE,117,0.0,0.0,92,0.00,,---,0.00,VWS V14.00,2013-08-19 10:35:00,
2013-08-19 05:40:00,65.8,63.7,29.99,ESE,117,3.0,5.0,93,0.00,,---,0.00,VWS V14.00,2013-08-19 10:40:00,
2013-08-19 05:45:00,66.0,63.9,29.99,ESE,117,2.0,5.0,93,0.00,,---,0.00,VWS V14.00,2013-08-19 10:45:00,
2013-08-19 05:50:00,66.1,63.7,29.99,ESE,117,2.0,6.0,92,0.00,,---,0.00,VWS V14.00,2013-08-19 10:50:00,
2013-08-19 05:55:00,66.1,63.7,29.99,ESE,117,0.0,4.0,92,0.00,,---,0.00,VWS V14.00,2013-08-19 10:55:00,
2013-08-19 06:00:00,66.1,63.7,30.00,ESE,117,0.0,0.0,92,0.00,,---,0.00,VWS V14.00,2013-08-19 11:00:00,
2013-08-19 06:05:00,66.1,63.7,30.00,ESE,117,0.0,0.0,92,0.00,,---,0.00,VWS V14.00,2013-08-19 11:05:00,
2013-08-19 06:10:00,66.1,63.7,30.00,ESE,117,0.0,0.0,92,0.00,,---,0.00,VWS V14.00,2013-08-19 11:10:00,
2013-08-19 06:15:00,66.1,63.7,30.00,ESE,117,0.0,0.0,92,0.00,,---,0.00,VWS V14.00,2013-08-19 11:15:00,
2013-08-19 06:20:00,66.1,63.7,30.00,ESE,117,0.0,0.0,92,0.00,,---,0.00,VWS V14.00,2013-08-19 11:20:00,
2013-08-19 06:25:00,66.1,63.7,30.01,ESE,117,0.0,0.0,92,0.00,,---,0.00,VWS V14.00,2013-08-19 11:25:00,
2013-08-19 06:30:00,66.1,63.7,30.01,ESE,117,0.0,0.0,92,0.00,,---,0.00,VWS V14.00,2013-08-19 11:30:00,
2013-08-19 06:35:00,66.1,63.4,30.01,ESE,117,0.0,0.0,91,0.00,,---,0.00,VWS V14.00,2013-08-19 11:35:00,
2013-08-19 06:40:00,66.0,63.3,30.01,ESE,117,0.0,0.0,91,0.00,,---,0.00,VWS V14.00,2013-08-19 11:40:00,
2013-08-19 06:45:00,66.0,63.3,30.01,ESE,117,0.0,0.0,91,0.00,,---,0.00,VWS V14.00,2013-08-19 11:45:00,
2013-08-19 06:50:00,65.9,63.2,30.01,ESE,117,0.0,0.0,91,0.00,,---,0.00,VWS V14.00,2013-08-19 11:50:00,
2013-08-19 06:55:00,65.8,63.1,30.01,ESE,117,0.0,0.0,91,0.00,,---,0.00,VWS V14.00,2013-08-19 11:55:00,
2013-08-19 07:00:00,65.7,63.0,30.01,ESE,117,0.0,0.0,91,0.00,,---,0.00,VWS V14.00,2013-08-19 12:00:00,
2013-08-19 07:05:00,65.7,63.0,30.01,ESE,117,0.0,0.0,91,0.00,,---,0.00,VWS V14.00,2013-08-19 12:05:00,
2013-08-19 07:10:00,65.6,62.9,30.01,ESE,117,0.0,0.0,91,0.00,,---,0.00,VWS V14.00,2013-08-19 12:10:00,
2013-08-19 07:15:00,65.8,63.4,30.02,ESE,117,0.0,0.0,92,0.00,,---,0.00,VWS V14.00,2013-08-19 12:15:00,
2013-08-19 07:20:00,65.9,63.5,30.01,ESE,117,0.0,0.0,92,0.00,,---,0.00,VWS V14.00,2013-08-19 12:20:00,
2013-08-19 07:25:00,66.1,63.7,30.02,ESE,117,0.0,0.0,92,0.00,,---,0.00,VWS V14.00,2013-08-19 12:25:00,
2013-08-19 07:30:00,66.3,63.9,30.02,ESE,117,0.0,0.0,92,0.00,,---,0.00,VWS V14.00,2013-08-19 12:30:00,
2013-08-19 07:35:00,66.6,64.2,30.02,ESE,117,0.0,0.0,92,0.00,,---,0.00,VWS V14.00,2013-08-19 12:35:00,
2013-08-19 07:40:00,66.8,64.4,30.02,ESE,117,0.0,0.0,92,0.00,,---,0.00,VWS V14.00,2013-08-19 12:40:00,
2013-08-19 07:45:00,67.2,65.1,30.02,ESE,117,0.0,0.0,93,0.00,,---,0.00,VWS V14.00,2013-08-19 12:45:00,
2013-08-19 07:50:00,67.6,65.5,30.02,ESE,117,0.0,0.0,93,0.00,,---,0.00,VWS V14.00,2013-08-19 12:50:00,
2013-08-19 07:55:00,67.8,65.4,30.02,ESE,117,0.0,0.0,92,0.00,,---,0.00,VWS V14.00,2013-08-19 12:55:00,
2013-08-19 08:00:00,68.0,65.9,30.02,ESE,117,0.0,0.0,93,0.00,,---,0.00,VWS V14.00,2013-08-19 13:00:00,
2013-08-19 08:05:00,68.3,66.2,30.02,ESE,117,0.0,0.0,93,0.00,,---,0.00,VWS V14.00,2013-08-19 13:05:00,
2013-08-19 08:10:00,68.6,66.5,30.02,ESE,117,0.0,0.0,93,0.00,,---,0.00,VWS V14.00,2013-08-19 13:10:00,
2013-08-19 08:15:00,69.0,66.9,30.03,ESE,117,3.0,3.0,93,0.00,,---,0.00,VWS V14.00,2013-08-19 13:15:00,
2013-08-19 08:20:00,69.5,67.4,30.03,ESE,117,0.0,3.0,93,0.00,,---,0.00,VWS V14.00,2013-08-19 13:20:00,
2013-08-19 08:25:00,70.0,67.9,30.03,ESE,117,4.0,5.0,93,0.00,,---,0.00,VWS V14.00,2013-08-19 13:25:00,
2013-08-19 08:30:00,70.3,67.9,30.03,ESE,117,3.0,7.0,92,0.00,,---,0.00,VWS V14.00,2013-08-19 13:30:00,
2013-08-19 08:35:00,70.4,68.0,30.03,ESE,117,4.0,10.0,92,0.00,,---,0.00,VWS V14.00,2013-08-19 13:35:00,
2013-08-19 08:40:00,70.6,68.2,30.03,ESE,117,4.0,7.0,92,0.00,,---,0.00,VWS V14.00,2013-08-19 13:40:00,
2013-08-19 08:45:00,70.8,68.1,30.03,ESE,117,4.0,11.0,91,0.00,,---,0.00,VWS V14.00,2013-08-19 13:45:00,
2013-08-19 08:50:00,71.0,68.2,30.03,ESE,117,4.0,6.0,91,0.00,,---,0.00,VWS V14.00,2013-08-19 13:50:00,
2013-08-19 08:55:00,71.3,68.5,30.04,ESE,118,4.0,7.0,91,0.00,,---,0.00,VWS V14.00,2013-08-19 13:55:00,
2013-08-19 09:00:00,71.7,68.6,30.04,SE,126,6.0,9.0,90,0.00,,---,0.00,VWS V14.00,2013-08-19 14:00:00,
2013-08-19 09:05:00,72.1,69.0,30.04,SE,136,5.0,9.0,90,0.00,,---,0.00,VWS V14.00,2013-08-19 14:05:00,
2013-08-19 09:10:00,72.6,69.2,30.04,SE,135,4.0,10.0,89,0.00,,---,0.00,VWS V14.00,2013-08-19 14:10:00,
2013-08-19 09:15:00,73.0,69.2,30.04,SE,138,6.0,9.0,88,0.00,,---,0.00,VWS V14.00,2013-08-19 14:15:00,
2013-08-19 09:20:00,73.2,68.8,30.05,SE,142,5.0,10.0,86,0.00,,---,0.00,VWS V14.00,2013-08-19 14:20:00,
2013-08-19 09:25:00,73.5,69.1,30.05,SE,145,2.0,5.0,86,0.00,,---,0.00,VWS V14.00,2013-08-19 14:25:00,
2013-08-19 09:30:00,74.0,69.6,30.05,SSE,152,3.0,10.0,86,0.00,,---,0.00,VWS V14.00,2013-08-19 14:30:00,
2013-08-19 09:35:00,74.2,69.1,30.05,SSE,162,3.0,8.0,84,0.00,,---,0.00,VWS V14.00,2013-08-19 14:35:00,
2013-08-19 09:40:00,74.7,69.2,30.04,South,171,5.0,12.0,83,0.00,,---,0.00,VWS V14.00,2013-08-19 14:40:00,
2013-08-19 09:45:00,75.0,68.8,30.04,SSE,167,5.0,13.0,81,0.00,,---,0.00,VWS V14.00,2013-08-19 14:45:00,
2013-08-19 09:50:00,75.3,68.3,30.05,SSE,165,10.0,12.0,79,0.00,,---,0.00,VWS V14.00,2013-08-19 14:50:00,
2013-08-19 09:55:00,75.6,68.6,30.05,SE,145,7.0,11.0,79,0.00,,---,0.00,VWS V14.00,2013-08-19 14:55:00,
2013-08-19 10:00:00,75.7,68.0,30.05,SSE,150,6.0,11.0,77,0.00,,---,0.00,VWS V14.00,2013-08-19 15:00:00,
2013-08-19 10:05:00,76.0,68.3,30.05,SE,145,9.0,11.0,77,0.00,,---,0.00,VWS V14.00,2013-08-19 15:05:00,
2013-08-19 10:10:00,76.3,68.6,30.04,SE,146,5.0,12.0,77,0.00,,---,0.00,VWS V14.00,2013-08-19 15:10:00,
2013-08-19 10:15:00,76.6,68.5,30.04,SE,135,8.0,12.0,76,0.00,,---,0.00,VWS V14.00,2013-08-19 15:15:00,
2013-08-19 10:20:00,77.0,68.5,30.04,SSE,158,7.0,13.0,75,0.00,,---,0.00,VWS V14.00,2013-08-19 15:20:00,
2013-08-19 10:25:00,77.4,68.9,30.04,SSE,158,7.0,12.0,75,0.00,,---,0.00,VWS V14.00,2013-08-19 15:25:00,
2013-08-19 10:30:00,77.8,68.5,30.04,SE,135,9.0,15.0,73,0.00,,---,0.00,VWS V14.00,2013-08-19 15:30:00,
2013-08-19 10:35:00,78.0,69.1,30.04,SSE,158,7.0,14.0,74,0.00,,---,0.00,VWS V14.00,2013-08-19 15:35:00,
2013-08-19 10:40:00,78.4,69.0,30.04,SSE,158,7.0,12.0,73,0.00,,---,0.00,VWS V14.00,2013-08-19 15:40:00,
2013-08-19 10:45:00,78.7,68.5,30.04,SSE,158,7.0,14.0,71,0.00,,---,0.00,VWS V14.00,2013-08-19 15:45:00,
2013-08-19 10:50:00,79.0,68.8,30.04,SSE,158,7.0,12.0,71,0.00,,---,0.00,VWS V14.00,2013-08-19 15:50:00,
2013-08-19 10:55:00,79.3,68.7,30.05,SSE,158,8.0,14.0,70,0.00,,---,0.00,VWS V14.00,2013-08-19 15:55:00,
2013-08-19 11:00:00,79.6,69.4,30.04,SSE,158,7.0,11.0,71,0.00,,---,0.00,VWS V14.00,2013-08-19 16:00:00,
2013-08-19 11:05:00,79.9,68.4,30.04,SSE,158,7.0,12.0,68,0.00,,---,0.00,VWS V14.00,2013-08-19 16:05:00,
2013-08-19 11:10:00,80.1,68.6,30.04,SSE,158,8.0,13.0,68,0.00,,---,0.00,VWS V14.00,2013-08-19 16:10:00,
2013-08-19 11:15:00,80.3,68.8,30.04,SSE,158,8.0,12.0,68,0.00,,---,0.00,VWS V14.00,2013-08-19 16:15:00,
2013-08-19 11:20:00,80.4,68.4,30.04,SSE,158,8.0,14.0,67,0.00,,---,0.00,VWS V14.00,2013-08-19 16:20:00,
2013-08-19 11:25:00,80.6,68.2,30.04,SSE,158,7.0,12.0,66,0.00,,---,0.00,VWS V14.00,2013-08-19 16:25:00,
2013-08-19 11:30:00,80.8,68.8,30.03,SSE,158,7.0,13.0,67,0.00,,---,0.00,VWS V14.00,2013-08-19 16:30:00,
2013-08-19 11:35:00,81.1,68.7,30.04,South,180,9.0,15.0,66,0.00,,---,0.00,VWS V14.00,2013-08-19 16:35:00,
2013-08-19 11:40:00,81.3,68.9,30.03,SSE,158,7.0,13.0,66,0.00,,---,0.00,VWS V14.00,2013-08-19 16:40:00,
2013-08-19 11:45:00,81.5,69.9,30.03,SSE,158,7.0,13.0,68,0.00,,---,0.00,VWS V14.00,2013-08-19 16:45:00,
2013-08-19 11:50:00,81.7,68.8,30.03,SE,135,7.0,14.0,65,0.00,,---,0.00,VWS V14.00,2013-08-19 16:50:00,
2013-08-19 11:55:00,81.9,69.4,30.03,SE,135,8.0,13.0,66,0.00,,---,0.00,VWS V14.00,2013-08-19 16:55:00,
2013-08-19 12:00:00,81.9,69.4,30.03,SE,135,7.0,11.0,66,0.00,,---,0.00,VWS V14.00,2013-08-19 17:00:00,
2013-08-19 12:05:00,82.1,69.6,30.03,SE,135,7.0,11.0,66,0.00,,---,0.00,VWS V14.00,2013-08-19 17:05:00,
2013-08-19 12:10:00,82.4,69.9,30.03,SE,135,5.0,10.0,66,0.00,,---,0.00,VWS V14.00,2013-08-19 17:10:00,
2013-08-19 12:15:00,82.7,68.8,30.03,SE,135,9.0,16.0,63,0.00,,---,0.00,VWS V14.00,2013-08-19 17:15:00,
2013-08-19 12:20:00,82.8,69.8,30.03,SSE,158,7.0,13.0,65,0.00,,---,0.00,VWS V14.00,2013-08-19 17:20:00,
2013-08-19 12:25:00,83.0,69.1,30.03,SE,135,6.0,13.0,63,0.00,,---,0.00,VWS V14.00,2013-08-19 17:25:00,
2013-08-19 12:30:00,83.1,70.1,30.03,SE,135,6.0,10.0,65,0.00,,---,0.00,VWS V14.00,2013-08-19 17:30:00,
2013-08-19 12:35:00,83.4,68.6,30.03,SSE,158,7.0,11.0,61,0.00,,---,0.00,VWS V14.00,2013-08-19 17:35:00,
2013-08-19 12:40:00,83.6,68.7,30.03,SSE,158,6.0,12.0,61,0.00,,---,0.00,VWS V14.00,2013-08-19 17:40:00,
2013-08-19 12:45:00,83.6,70.6,30.02,SSE,158,6.0,11.0,65,0.00,,---,0.00,VWS V14.00,2013-08-19 17:45:00,
2013-08-19 12:50:00,83.7,68.8,30.02,SE,135,7.0,13.0,61,0.00,,---,0.00,VWS V14.00,2013-08-19 17:50:00,
2013-08-19 12:55:00,83.7,69.3,30.01,SSE,158,7.0,15.0,62,0.00,,---,0.00,VWS V14.00,2013-08-19 17:55:00,
2013-08-19 13:00:00,84.0,69.1,30.02,SSE,158,6.0,11.0,61,0.00,,---,0.00,VWS V14.00,2013-08-19 18:00:00,
2013-08-19 13:05:00,84.1,68.7,30.01,SSE,158,5.0,12.0,60,0.00,,---,0.00,VWS V14.00,2013-08-19 18:05:00,
2013-08-19 13:10:00,84.1,68.7,30.01,SE,135,6.0,11.0,60,0.00,,---,0.00,VWS V14.00,2013-08-19 18:10:00,
2013-08-19 13:15:00,84.0,68.6,30.01,SE,135,6.0,11.0,60,0.00,,---,0.00,VWS V14.00,2013-08-19 18:15:00,
2013-08-19 13:20:00,84.3,68.4,30.01,SSE,158,6.0,12.0,59,0.00,,---,0.00,VWS V14.00,2013-08-19 18:20:00,
2013-08-19 13:25:00,84.3,68.9,30.01,SSE,158,7.0,12.0,60,0.00,,---,0.00,VWS V14.00,2013-08-19 18:25:00,
2013-08-19 13:30:00,84.3,68.9,30.01,SE,135,5.0,10.0,60,0.00,,---,0.00,VWS V14.00,2013-08-19 18:30:00,
2013-08-19 13:35:00,84.4,69.0,30.01,SSE,158,7.0,11.0,60,0.00,,---,0.00,VWS V14.00,2013-08-19 18:35:00,
2013-08-19 13:40:00,84.6,69.7,30.01,SSE,158,6.0,10.0,61,0.00,,---,0.00,VWS V14.00,2013-08-19 18:40:00,
2013-08-19 13:45:00,84.8,68.4,30.01,SSE,158,4.0,10.0,58,0.00,,---,0.00,VWS V14.00,2013-08-19 18:45:00,
2013-08-19 13:50:00,85.1,69.2,30.01,SSE,158,5.0,11.0,59,0.00,,---,0.00,VWS V14.00,2013-08-19 18:50:00,
2013-08-19 13:55:00,85.3,69.8,30.00,SSE,158,6.0,12.0,60,0.00,,---,0.00,VWS V14.00,2013-08-19 18:55:00,
2013-08-19 14:00:00,85.5,70.0,30.00,SSE,158,6.0,10.0,60,0.00,,---,0.00,VWS V14.00,2013-08-19 19:00:00,
2013-08-19 14:05:00,85.6,69.1,30.00,SSE,158,6.0,13.0,58,0.00,,---,0.00,VWS V14.00,2013-08-19 19:05:00,
2013-08-19 14:10:00,85.6,69.1,30.00,SE,135,7.0,12.0,58,0.00,,---,0.00,VWS V14.00,2013-08-19 19:10:00,
2013-08-19 14:15:00,85.4,68.4,30.00,SE,135,7.0,10.0,57,0.00,,---,0.00,VWS V14.00,2013-08-19 19:15:00,
2013-08-19 14:20:00,85.3,69.4,30.00,SE,135,7.0,11.0,59,0.00,,---,0.00,VWS V14.00,2013-08-19 19:20:00,
2013-08-19 14:25:00,85.5,70.0,30.00,SSE,158,4.0,8.0,60,0.00,,---,0.00,VWS V14.00,2013-08-19 19:25:00,
2013-08-19 14:30:00,85.8,69.8,30.00,SSE,158,5.0,10.0,59,0.00,,---,0.00,VWS V14.00,2013-08-19 19:30:00,
2013-08-19 14:35:00,86.0,68.5,30.00,SSE,158,4.0,9.0,56,0.00,,---,0.00,VWS V14.00,2013-08-19 19:35:00,
2013-08-19 14:40:00,85.9,69.4,30.00,SE,135,5.0,10.0,58,0.00,,---,0.00,VWS V14.00,2013-08-19 19:40:00,
2013-08-19 14:45:00,86.0,69.5,30.00,SE,135,4.0,9.0,58,0.00,,---,0.00,VWS V14.00,2013-08-19 19:45:00,
2013-08-19 14:50:00,86.2,68.7,30.00,SSE,158,5.0,12.0,56,0.00,,---,0.00,VWS V14.00,2013-08-19 19:50:00,
2013-08-19 14:55:00,86.4,68.9,30.00,SSE,158,5.0,9.0,56,0.00,,---,0.00,VWS V14.00,2013-08-19 19:55:00,
2013-08-19 15:00:00,86.6,69.6,29.99,SSE,158,3.0,10.0,57,0.00,,---,0.00,VWS V14.00,2013-08-19 20:00:00,
2013-08-19 15:05:00,86.8,70.3,29.99,SSE,158,3.0,9.0,58,0.00,,---,0.00,VWS V14.00,2013-08-19 20:05:00,
2013-08-19 15:10:00,87.0,68.4,29.99,SSE,158,6.0,11.0,54,0.00,,---,0.00,VWS V14.00,2013-08-19 20:10:00,
2013-08-19 15:15:00,86.6,70.1,29.99,SE,135,5.0,9.0,58,0.00,,---,0.00,VWS V14.00,2013-08-19 20:15:00,
2013-08-19 15:20:00,86.2,69.2,29.98,SSE,158,4.0,9.0,57,0.00,,---,0.00,VWS V14.00,2013-08-19 20:20:00,
2013-08-19 15:25:00,86.2,68.7,29.98,SSE,158,5.0,9.0,56,0.00,,---,0.00,VWS V14.00,2013-08-19 20:25:00,
2013-08-19 15:30:00,86.0,69.0,29.98,SSE,158,4.0,7.0,57,0.00,,---,0.00,VWS V14.00,2013-08-19 20:30:00,
2013-08-19 15:35:00,85.9,68.9,29.98,SSE,158,5.0,11.0,57,0.00,,---,0.00,VWS V14.00,2013-08-19 20:35:00,
2013-08-19 15:40:00,85.8,68.8,29.98,SSE,158,5.0,8.0,57,0.00,,---,0.00,VWS V14.00,2013-08-19 20:40:00,
2013-08-19 15:45:00,85.8,69.3,29.98,SSE,158,3.0,5.0,58,0.00,,---,0.00,VWS V14.00,2013-08-19 20:45:00,
2013-08-19 15:50:00,85.9,68.9,29.98,SSE,158,5.0,11.0,57,0.00,,---,0.00,VWS V14.00,2013-08-19 20:50:00,
2013-08-19 15:55:00,85.9,68.9,29.98,South,180,7.0,12.0,57,0.00,,---,0.00,VWS V14.00,2013-08-19 20:55:00,
2013-08-19 16:00:00,85.8,68.8,29.98,SSE,158,4.0,9.0,57,0.00,,---,0.00,VWS V14.00,2013-08-19 21:00:00,
2013-08-19 16:05:00,85.8,68.3,29.97,SSE,158,4.0,6.0,56,0.00,,---,0.00,VWS V14.00,2013-08-19 21:05:00,
2013-08-19 16:10:00,85.8,68.3,29.97,SSE,158,5.0,9.0,56,0.00,,---,0.00,VWS V14.00,2013-08-19 21:10:00,
2013-08-19 16:15:00,85.7,68.2,29.97,SSE,158,4.0,9.0,56,0.00,,---,0.00,VWS V14.00,2013-08-19 21:15:00,
2013-08-19 16:20:00,85.5,69.1,29.97,SSE,158,5.0,9.0,58,0.00,,---,0.00,VWS V14.00,2013-08-19 21:20:00,
2013-08-19 16:25:00,85.4,69.4,29.97,SSE,158,4.0,11.0,59,0.00,,---,0.00,VWS V14.00,2013-08-19 21:25:00,
2013-08-19 16:30:00,85.3,69.4,29.96,SSE,158,3.0,5.0,59,0.00,,---,0.00,VWS V14.00,2013-08-19 21:30:00,
2013-08-19 16:35:00,85.2,68.8,29.96,SSE,158,4.0,6.0,58,0.00,,---,0.00,VWS V14.00,2013-08-19 21:35:00,
2013-08-19 16:40:00,85.2,68.3,29.96,SSE,158,4.0,6.0,57,0.00,,---,0.00,VWS V14.00,2013-08-19 21:40:00,
2013-08-19 16:45:00,85.3,68.9,29.96,SSE,158,3.0,6.0,58,0.00,,---,0.00,VWS V14.00,2013-08-19 21:45:00,
2013-08-19 16:50:00,85.5,69.6,29.96,SSE,158,5.0,8.0,59,0.00,,---,0.00,VWS V14.00,2013-08-19 21:50:00,
2013-08-19 16:55:00,85.7,68.7,29.96,SSE,158,4.0,11.0,57,0.00,,---,0.00,VWS V14.00,2013-08-19 21:55:00,
2013-08-19 17:00:00,85.9,69.4,29.96,SSE,158,4.0,6.0,58,0.00,,---,0.00,VWS V14.00,2013-08-19 22:00:00,
2013-08-19 17:05:00,86.0,69.0,29.96,SSE,158,4.0,6.0,57,0.00,,---,0.00,VWS V14.00,2013-08-19 22:05:00,
2013-08-19 17:10:00,86.0,69.0,29.96,SSE,158,4.0,10.0,57,0.00,,---,0.00,VWS V14.00,2013-08-19 22:10:00,
2013-08-19 17:15:00,85.7,68.7,29.96,SSE,158,4.0,7.0,57,0.00,,---,0.00,VWS V14.00,2013-08-19 22:15:00,
2013-08-19 17:20:00,85.3,68.9,29.96,SSE,158,3.0,5.0,58,0.00,,---,0.00,VWS V14.00,2013-08-19 22:20:00,
2013-08-19 17:25:00,85.2,68.8,29.96,SSE,158,2.0,6.0,58,0.00,,---,0.00,VWS V14.00,2013-08-19 22:25:00,
2013-08-19 17:30:00,85.3,69.4,29.95,SSE,158,4.0,7.0,59,0.00,,---,0.00,VWS V14.00,2013-08-19 22:30:00,
2013-08-19 17:35:00,85.4,68.4,29.95,SSE,158,4.0,6.0,57,0.00,,---,0.00,VWS V14.00,2013-08-19 22:35:00,
2013-08-19 17:40:00,85.4,68.4,29.95,SSE,158,3.0,5.0,57,0.00,,---,0.00,VWS V14.00,2013-08-19 22:40:00,
2013-08-19 17:45:00,85.5,68.5,29.95,SSE,158,4.0,8.0,57,0.00,,---,0.00,VWS V14.00,2013-08-19 22:45:00,
2013-08-19 17:50:00,85.5,68.5,29.95,SSE,158,4.0,6.0,57,0.00,,---,0.00,VWS V14.00,2013-08-19 22:50:00,
2013-08-19 17:55:00,85.5,68.5,29.95,SSE,158,3.0,6.0,57,0.00,,---,0.00,VWS V14.00,2013-08-19 22:55:00,
2013-08-19 18:00:00,85.3,68.3,29.94,SSE,158,4.0,6.0,57,0.00,,---,0.00,VWS V14.00,2013-08-19 23:00:00,
2013-08-19 18:05:00,85.2,68.8,29.94,SSE,158,2.0,6.0,58,0.00,,---,0.00,VWS V14.00,2013-08-19 23:05:00,
2013-08-19 18:10:00,85.1,67.7,29.94,SSE,158,2.0,5.0,56,0.00,,---,0.00,VWS V14.00,2013-08-19 23:10:00,
2013-08-19 18:15:00,85.1,68.2,29.94,SSE,158,2.0,4.0,57,0.00,,---,0.00,VWS V14.00,2013-08-19 23:15:00,
2013-08-19 18:20:00,85.1,67.7,29.93,SSE,158,1.0,4.0,56,0.00,,---,0.00,VWS V14.00,2013-08-19 23:20:00,
2013-08-19 18:25:00,85.0,68.6,29.93,SSE,158,1.0,4.0,58,0.00,,---,0.00,VWS V14.00,2013-08-19 23:25:00,
2013-08-19 18:30:00,85.0,68.1,29.93,SSE,158,0.0,4.0,57,0.00,,---,0.00,VWS V14.00,2013-08-19 23:30:00,
2013-08-19 18:35:00,84.9,68.5,29.93,SSE,158,2.0,5.0,58,0.00,,---,0.00,VWS V14.00,2013-08-19 23:35:00,
2013-08-19 18:40:00,84.8,68.4,29.93,SSE,158,2.0,4.0,58,0.00,,---,0.00,VWS V14.00,2013-08-19 23:40:00,
2013-08-19 18:45:00,84.7,68.3,29.93,SSE,158,0.0,0.0,58,0.00,,---,0.00,VWS V14.00,2013-08-19 23:45:00,
2013-08-19 18:50:00,84.6,69.2,29.93,SSE,158,0.0,0.0,60,0.00,,---,0.00,VWS V14.00,2013-08-19 23:50:00,
2013-08-19 18:55:00,84.4,70.4,29.93,SSE,158,1.0,2.0,63,0.00,,---,0.00,VWS V14.00,2013-08-19 23:55:00,
2013-08-19 19:00:00,84.1,70.2,29.92,SSE,158,1.0,3.0,63,0.00,,---,0.00,VWS V14.00,2013-08-20 00:00:00,
2013-08-19 19:05:00,83.7,70.2,29.93,SSE,158,0.0,2.0,64,0.00,,---,0.00,VWS V14.00,2013-08-20 00:05:00,
2013-08-19 19:10:00,83.3,69.9,29.93,SSE,158,1.0,4.0,64,0.00,,---,0.00,VWS V14.00,2013-08-20 00:10:00,
2013-08-19 19:15:00,82.8,70.3,29.93,SSE,158,1.0,4.0,66,0.00,,---,0.00,VWS V14.00,2013-08-20 00:15:00,
2013-08-19 19:20:00,82.3,70.3,29.93,SSE,158,0.0,3.0,67,0.00,,---,0.00,VWS V14.00,2013-08-20 00:20:00,
2013-08-19 19:25:00,81.9,70.3,29.93,SSE,158,0.0,3.0,68,0.00,,---,0.00,VWS V14.00,2013-08-20 00:25:00,
2013-08-19 19:30:00,81.4,70.3,29.93,SSE,158,0.0,3.0,69,0.00,,---,0.00,VWS V14.00,2013-08-20 00:30:00,
2013-08-19 19:35:00,81.0,70.3,29.93,SSE,158,0.0,0.0,70,0.00,,---,0.00,VWS V14.00,2013-08-20 00:35:00,
2013-08-19 19:40:00,80.7,70.8,29.93,SSE,158,0.0,0.0,72,0.00,,---,0.00,VWS V14.00,2013-08-20 00:40:00,
2013-08-19 19:45:00,80.2,70.4,29.93,SSE,158,0.0,0.0,72,0.00,,---,0.00,VWS V14.00,2013-08-20 00:45:00,
2013-08-19 19:50:00,79.7,70.7,29.93,SSE,158,0.0,0.0,74,0.00,,---,0.00,VWS V14.00,2013-08-20 00:50:00,
2013-08-19 19:55:00,79.3,70.3,29.93,SSE,158,0.0,0.0,74,0.00,,---,0.00,VWS V14.00,2013-08-20 00:55:00,
2013-08-19 20:00:00,78.8,70.2,29.93,SSE,158,0.0,0.0,75,0.00,,---,0.00,VWS V14.00,2013-08-20 01:00:00,
2013-08-19 20:05:00,78.3,69.3,29.93,SSE,158,0.0,0.0,74,0.00,,---,0.00,VWS V14.00,2013-08-20 01:05:00,
2013-08-19 20:10:00,77.8,68.9,29.93,SSE,158,0.0,1.0,74,0.00,,---,0.00,VWS V14.00,2013-08-20 01:10:00,
2013-08-19 20:15:00,77.5,69.3,29.93,SSE,158,0.0,0.0,76,0.00,,---,0.00,VWS V14.00,2013-08-20 01:15:00,
2013-08-19 20:20:00,77.1,69.3,29.93,SSE,158,0.0,0.0,77,0.00,,---,0.00,VWS V14.00,2013-08-20 01:20:00,
2013-08-19 20:25:00,76.7,69.3,29.93,SSE,158,0.0,0.0,78,0.00,,---,0.00,VWS V14.00,2013-08-20 01:25:00,
2013-08-19 20:30:00,76.2,68.8,29.93,SSE,158,0.0,0.0,78,0.00,,---,0.00,VWS V14.00,2013-08-20 01:30:00,
2013-08-19 20:35:00,75.7,68.4,29.93,SSE,158,0.0,0.0,78,0.00,,---,0.00,VWS V14.00,2013-08-20 01:35:00,
2013-08-19 20:40:00,75.2,67.9,29.93,SSE,158,0.0,0.0,78,0.00,,---,0.00,VWS V14.00,2013-08-20 01:40:00,
2013-08-19 20:45:00,74.9,67.9,29.93,SSE,158,0.0,0.0,79,0.00,,---,0.00,VWS V14.00,2013-08-20 01:45:00,
2013-08-19 20:50:00,74.7,67.8,29.93,SSE,158,0.0,0.0,79,0.00,,---,0.00,VWS V14.00,2013-08-20 01:50:00,
2013-08-19 20:55:00,74.5,67.6,29.93,SSE,158,0.0,0.0,79,0.00,,---,0.00,VWS V14.00,2013-08-20 01:55:00,
2013-08-19 21:00:00,74.3,67.4,29.93,SSE,158,0.0,0.0,79,0.00,,---,0.00,VWS V14.00,2013-08-20 02:00:00,
2013-08-19 21:05:00,74.2,67.3,29.93,SSE,158,0.0,0.0,79,0.00,,---,0.00,VWS V14.00,2013-08-20 02:05:00,
2013-08-19 21:10:00,74.0,67.1,29.93,SSE,158,0.0,0.0,79,0.00,,---,0.00,VWS V14.00,2013-08-20 02:10:00,
2013-08-19 21:15:00,73.8,66.9,29.94,SSE,158,1.0,3.0,79,0.00,,---,0.00,VWS V14.00,2013-08-20 02:15:00,
2013-08-19 21:20:00,73.6,66.7,29.94,SSE,158,2.0,4.0,79,0.00,,---,0.00,VWS V14.00,2013-08-20 02:20:00,
2013-08-19 21:25:00,73.4,66.5,29.94,SSE,158,3.0,4.0,79,0.00,,---,0.00,VWS V14.00,2013-08-20 02:25:00,
2013-08-19 21:30:00,73.3,66.4,29.95,SSE,158,4.0,6.0,79,0.00,,---,0.00,VWS V14.00,2013-08-20 02:30:00,
2013-08-19 21:35:00,73.4,66.5,29.95,SSE,158,4.0,5.0,79,0.00,,---,0.00,VWS V14.00,2013-08-20 02:35:00,
2013-08-19 21:40:00,73.6,66.3,29.95,SSE,158,4.0,5.0,78,0.00,,---,0.00,VWS V14.00,2013-08-20 02:40:00,
2013-08-19 21:45:00,73.8,66.2,29.95,SSE,158,4.0,5.0,77,0.00,,---,0.00,VWS V14.00,2013-08-20 02:45:00,
2013-08-19 21:50:00,73.9,66.2,29.96,SSE,158,3.0,5.0,77,0.00,,---,0.00,VWS V14.00,2013-08-20 02:50:00,
2013-08-19 21:55:00,74.1,66.1,29.96,SSE,158,4.0,5.0,76,0.00,,---,0.00,VWS V14.00,2013-08-20 02:55:00,
2013-08-19 22:00:00,74.1,66.1,29.96,SSE,158,4.0,5.0,76,0.00,,---,0.00,VWS V14.00,2013-08-20 03:00:00,
2013-08-19 22:05:00,74.2,66.2,29.96,SSE,158,3.0,5.0,76,0.00,,---,0.00,VWS V14.00,2013-08-20 03:05:00,
2013-08-19 22:10:00,74.2,66.2,29.96,SSE,158,2.0,4.0,76,0.00,,---,0.00,VWS V14.00,2013-08-20 03:10:00,
2013-08-19 22:15:00,74.1,66.1,29.96,SSE,158,2.0,3.0,76,0.00,,---,0.00,VWS V14.00,2013-08-20 03:15:00,
2013-08-19 22:20:00,74.0,66.0,29.96,SSE,158,2.0,4.0,76,0.00,,---,0.00,VWS V14.00,2013-08-20 03:20:00,
2013-08-19 22:25:00,73.9,66.2,29.96,SSE,158,3.0,4.0,77,0.00,,---,0.00,VWS V14.00,2013-08-20 03:25:00,
2013-08-19 22:30:00,73.7,66.4,29.96,SSE,158,3.0,5.0,78,0.00,,---,0.00,VWS V14.00,2013-08-20 03:30:00,
2013-08-19 22:35:00,73.5,66.2,29.96,SSE,158,2.0,4.0,78,0.00,,---,0.00,VWS V14.00,2013-08-20 03:35:00,
2013-08-19 22:40:00,73.3,66.4,29.97,SSE,158,1.0,4.0,79,0.00,,---,0.00,VWS V14.00,2013-08-20 03:40:00,
2013-08-19 22:45:00,73.1,66.2,29.96,SSE,158,0.0,0.0,79,0.00,,---,0.00,VWS V14.00,2013-08-20 03:45:00,
2013-08-19 22:50:00,72.9,66.4,29.96,SSE,158,0.0,0.0,80,0.00,,---,0.00,VWS V14.00,2013-08-20 03:50:00,
2013-08-19 22:55:00,72.7,66.2,29.97,SSE,158,0.0,0.0,80,0.00,,---,0.00,VWS V14.00,2013-08-20 03:55:00,
2013-08-19 23:00:00,72.6,66.1,29.97,SSE,158,0.0,0.0,80,0.00,,---,0.00,VWS V14.00,2013-08-20 04:00:00,
2013-08-19 23:05:00,72.6,66.1,29.97,SSE,158,0.0,0.0,80,0.00,,---,0.00,VWS V14.00,2013-08-20 04:05:00,
2013-08-19 23:10:00,72.6,66.1,29.97,SSE,158,0.0,0.0,80,0.00,,---,0.00,VWS V14.00,2013-08-20 04:10:00,
2013-08-19 23:15:00,72.7,65.8,29.97,SSE,158,0.0,0.0,79,0.00,,---,0.00,VWS V14.00,2013-08-20 04:15:00,
2013-08-19 23:20:00,72.8,66.3,29.97,SSE,158,0.0,0.0,80,0.00,,---,0.00,VWS V14.00,2013-08-20 04:20:00,
2013-08-19 23:25:00,72.9,66.0,29.96,SSE,158,3.0,6.0,79,0.00,,---,0.00,VWS V14.00,2013-08-20 04:25:00,
2013-08-19 23:30:00,72.9,66.0,29.96,SSE,158,4.0,5.0,79,0.00,,---,0.00,VWS V14.00,2013-08-20 04:30:00,
2013-08-19 23:35:00,72.9,66.4,29.97,SSE,158,4.0,5.0,80,0.00,,---,0.00,VWS V14.00,2013-08-20 04:35:00,
2013-08-19 23:40:00,72.8,66.3,29.97,SSE,158,4.0,6.0,80,0.00,,---,0.00,VWS V14.00,2013-08-20 04:40:00,
2013-08-19 23:45:00,72.6,66.1,29.97,SSE,158,4.0,6.0,80,0.00,,---,0.00,VWS V14.00,2013-08-20 04:45:00,
2013-08-19 23:50:00,72.5,66.0,29.97,SSE,158,4.0,6.0,80,0.00,,---,0.00,VWS V14.00,2013-08-20 04:50:00,
2013-08-19 23:55:00,72.5,66.0,29.97,SSE,158,4.0,6.0,80,0.00,,---,0.00,VWS V14.00,2013-08-20 04:55:00,